Regional Weather Roundup
Issued by NWS

Home | Current Version | Previous Version | Text Only | Print | Product List | Glossary On
Versions: 1 2 3 4 5 6 7 8 9 10 11 12 13 14 15 16 17 18 19 20 21 22 23 24 25 26 27 28 29 30 31 32 33 34 35 36 37 38 39 40 41 42 43 44 45 46 47 48 49 50
000
ASUS45 KSLC 131610
RWRUT

UTAH REGIONAL WEATHER ROUNDUP
NATIONAL WEATHER SERVICE SALT LAKE CITY UT
900 AM MST WED NOV 13 2019

UTZ001>011-023>025-131700-

NORTHERN UTAH

CITY           SKY/WX    TMP DP  RH WIND       PRES   REMARKS
BRIGHAM CITY   CLOUDY    39  30  68 CALM      30.18S
DUGWAY         MOSUNNY   38  18  43 VRB1      30.11R
HILL AFB       SUNNY     46  22  39 E5        30.17R
LOGAN          CLOUDY    42  31  64 CALM      30.16R
OGDEN          MOSUNNY   43  20  39 S3        30.17R
SALT LAKE CITY MOSUNNY   43  27  53 SE3       30.17R
TOOELE VALLEY  SUNNY     45  27  49 E3        30.18R
WENDOVER       SUNNY     34  22  61 CALM      30.19R
HEBER CITY       N/A     34  19  55 CALM      30.18R
WEST JORDAN    SUNNY     44  30  57 CALM      30.18R

$$

UTZ011>015-024>027-131700-

CENTRAL/NORTHEAST UTAH

CITY           SKY/WX    TMP DP  RH WIND       PRES   REMARKS
PROVO AIRPORT  MOSUNNY   40  22  48 SE5       30.20R
MOAB/CANYONLAN SUNNY     36   7  29 CALM      30.18R
DELTA          SUNNY     32  18  55 SW3       30.20R
PRICE          SUNNY     37  14  38 CALM      30.19R
ROOSEVELT      SUNNY     32  18  55 CALM      30.22R
DUCHESNE       SUNNY     36  16  44 W2        30.18S
VERNAL         SUNNY     37  16  42 CALM      30.17S

$$

UTZ013>016-019>022-027-131700-

SOUTHERN UTAH

CITY           SKY/WX    TMP DP  RH WIND       PRES   REMARKS
BRYCE CANYON   SUNNY     41  10  28 CALM      30.24R
CEDAR CITY     SUNNY     41  14  33 N3        30.17R
MILFORD        SUNNY     41  15  35 CALM      30.19R
ST GEORGE      SUNNY     44  16  32 CALM      30.15R
HANKSVILLE     SUNNY     32   3  29 CALM      30.23S
KANAB          SUNNY     41  14  33 CALM      30.21S
BLANDING         N/A     43  13  30 CALM      30.25S

$$

REGIONAL REPORTS     COLORADO/ARIZONA

CITY           SKY/WX    TMP DP  RH WIND       PRES   REMARKS
CRAIG, CO      MOSUNNY   36  19  50 CALM      30.18R
GRAND JUNCTION SUNNY     36  12  37 CALM      30.20R
RIFLE, CO      MOSUNNY   32  14  47 CALM      30.23R
MONTROSE, CO   SUNNY     34  13  41 S3        30.23S
CORTEZ, CO     SUNNY     38  11  32 NE5       30.18S WCI  34
COLORADO CITY    N/A     43  18  36 CALM      30.19R
PAGE, AZ       SUNNY     47  12  24 NE3       30.17R
GRAND CANYON   SUNNY     41  14  33 CALM      30.20R
KINGMAN, AZ    SUNNY     55  17  22 CALM      30.10R
FLAGSTAFF, AZ  SUNNY     47  21  35 NE3       30.20R

$$

REGIONAL REPORTS    NEVADA/IDAHO/WYOMING

CITY           SKY/WX    TMP DP  RH WIND       PRES   REMARKS
LAS VEGAS, NV  MOSUNNY   59  24  26 CALM      30.07R
ELY, NY        SUNNY     33  14  45 S9        30.23R WCI  25
ELKO, NV       SUNNY     31  20  63 E3        30.20R
POCATELLO, ID  MOSUNNY   37  21  52 SW5       30.18R WCI  33
BURLEY, ID     SUNNY     39  26  59 CALM      30.16R
EVANSTON, WY   CLOUDY    41  19  41 W14       30.18R
ROCK SPRINGS,  SUNNY     36  21  54 W10       30.15R WCI  28
KEMMERER, WY   PTSUNNY   37  27  65 NW6       30.17S WCI  33

$$



USA.gov is the U.S. government's official web portal to all federal, state and local government web resources and services.